Theta_e
344 343 344 343 343 342 342 342 342 342 341 344 346 345 343 342 342 341 342 340 341 341 341 341 340 338 337 335 335 333 333 334 335 333 333 335 337 338 337 335 335 337 337
344 342 342 344 343 342 340 341 342 341 341 341 342 342 340 342 341 341 340 341 341 340 342 341 340 339 339 337 331 329 332 332 331 332 332 333 334 336 336 335 335 336 336
344 342 342 341 341 341 340 341 341 339 339 339 337 341 342 342 341 340 339 341 341 340 341 340 339 337 334 330 331 329 332 334 332 333 333 334 334 335 334 334 335 336 336
345 343 342 340 341 341 340 341 339 338 337 342 338 340 340 341 341 341 340 338 339 339 337 337 337 335 330 328 329 329 330 332 332 334 333 333 332 332 332 332 332 333 333
344 345 342 341 341 341 340 339 338 338 340 343 341 338 341 340 341 340 339 339 338 337 336 335 336 334 329 325 326 327 329 331 331 333 332 330 330 331 331 331 332 332 332
345 346 344 341 341 340 340 339 337 337 341 340 340 336 340 340 339 339 338 338 337 335 333 334 333 330 327 325 323 324 327 330 329 334 332 330 329 330 330 330 329 330 332
344 345 345 342 340 340 339 339 339 338 338 338 336 339 339 339 338 337 336 336 334 332 330 331 329 325 321 318 317 320 325 329 330 333 329 327 327 329 330 330 331 331 330
335 344 345 343 341 340 339 338 338 338 337 335 337 339 340 338 338 337 335 334 333 331 328 327 323 318 315 315 314 319 327 329 332 329 328 326 325 329 331 331 330 331 331
318 338 344 343 341 339 339 339 338 338 336 337 339 340 339 337 336 335 333 332 330 329 326 326 322 320 319 316 321 326 330 331 330 328 326 324 320 332 331 330 331 329 328
314 315 333 341 342 340 338 337 337 338 337 338 339 339 338 337 335 333 328 325 327 326 326 325 325 323 323 322 325 329 331 330 327 325 324 324 326 332 331 330 328 327 326
311 313 314 324 339 339 340 338 337 337 337 338 340 339 337 336 333 328 323 320 324 325 325 325 325 319 322 323 325 328 327 326 325 324 324 322 331 331 329 326 325 324 323
310 311 314 314 314 315 330 339 339 338 337 337 340 339 337 335 330 324 318 318 322 322 324 325 325 320 323 320 325 325 324 323 323 323 319 328 332 330 327 325 324 322 320
310 311 311 312 313 313 313 319 338 339 338 336 339 338 337 333 327 321 317 319 319 321 322 325 322 321 320 321 323 323 322 321 322 326 328 331 330 328 326 323 322 320 319
310 310 311 311 311 312 312 313 316 336 338 337 339 337 337 331 325 318 316 316 317 319 320 324 318 319 318 322 322 321 321 326 330 331 330 329 328 326 324 322 321 320 318
310 310 310 311 311 311 312 312 318 334 335 337 337 337 336 330 323 315 316 317 317 317 320 320 318 317 318 318 320 319 322 329 328 329 328 325 322 320 321 320 318 317 316
311 311 311 310 310 310 311 312 314 321 328 331 334 333 334 329 319 315 318 318 318 315 319 318 321 321 319 317 319 319 322 326 327 325 322 320 320 319 318 317 316 315 314
311 311 311 311 310 310 311 313 319 315 324 327 330 328 322 321 318 319 318 316 317 315 318 320 319 318 317 316 318 318 319 319 319 318 318 317 317 315 314 313 312 312 313
310 310 311 311 310 310 310 313 314 327 329 329 330 329 322 322 320 319 316 315 315 314 316 318 317 316 316 316 316 317 316 315 313 312 312 311 309 308 307 309 310 310 310
309 310 310 310 310 310 310 314 317 323 324 325 326 327 324 320 320 319 314 314 316 316 317 318 316 316 315 315 315 315 314 314 313 311 310 309 307 305 306 306 305 306 309
309 309 309 309 309 309 312 317 324 323 324 323 325 325 324 320 319 317 314 314 314 314 316 317 316 315 315 315 314 314 314 313 313 311 310 308 307 308 307 304 303 304 308
310 310 309 309 309 311 318 320 320 321 321 321 323 323 320 318 319 317 316 316 312 315 316 316 315 314 313 314 313 311 311 311 311 310 309 309 309 307 302 302 301 302 306
309 309 308 308 309 314 317 316 318 320 320 320 320 320 320 318 318 316 314 313 313 315 314 314 314 311 310 312 310 307 304 305 308 309 310 310 308 302 300 300 300 300 299
307 307 307 307 307 310 313 318 319 319 318 319 317 318 319 319 318 317 314 313 312 314 314 313 312 312 308 307 311 307 302 306 301 304 308 304 302 301 300 300 299 299 298
306 306 306 306 307 309 311 316 318 318 316 316 317 317 317 318 316 313 312 311 311 311 313 312 309 309 310 305 307 304 303 302 299 299 299 299 299 299 299 299 298 298 295
305 305 305 305 306 307 314 314 317 318 317 316 314 313 315 315 312 312 311 310 310 310 311 311 308 305 305 305 306 303 302 301 301 299 298 297 297 296 296 297 296 294 293
307 307 307 306 306 306 313 315 316 317 316 313 312 308 309 311 312 313 311 309 307 308 309 309 304 303 302 302 303 303 303 302 301 299 297 296 294 294 293 293 293 292 292
Wind_Speed
9 19 16 15 15 15 15 15 14 16 15 14 14 15 15 16 14 12 12 13 15 13 13 13 13 12 12 12 11 12 12 12 12 12 12 12 13 13 12 13 11 11 11
9 19 17 15 15 15 14 15 15 16 16 15 14 13 13 14 15 14 12 12 12 12 12 12 13 12 11 10 10 11 11 11 11 11 11 12 13 14 14 13 12 13 12
10 19 17 16 15 15 15 15 16 16 17 16 15 13 13 12 12 12 12 12 13 12 12 12 11 10 9 9 10 9 10 10 9 9 10 13 14 14 13 11 12 12 12
10 18 19 17 16 16 16 15 16 16 15 17 15 16 14 12 12 12 12 11 10 11 10 8 9 8 8 8 8 8 9 9 7 9 11 11 11 12 13 12 12 12 12
11 17 19 19 18 17 17 16 17 17 15 17 15 15 15 14 13 11 10 10 12 11 8 7 8 7 6 6 6 7 8 7 4 10 12 9 12 12 11 11 12 12 12
11 16 19 19 20 21 20 19 18 20 17 17 16 15 15 15 11 10 11 12 11 11 9 8 7 6 6 5 6 8 9 8 6 15 12 11 11 11 10 10 10 11 13
5 13 18 20 21 23 23 22 22 20 20 18 17 17 17 17 17 13 11 11 11 10 9 8 7 7 6 6 7 8 10 10 11 15 12 8 9 10 9 10 12 12 12
4 8 16 20 22 23 24 23 25 23 22 21 20 19 20 15 13 13 14 13 11 9 8 8 8 6 6 6 7 10 10 14 17 16 12 7 5 10 10 11 12 15 17
6 3 11 18 21 22 25 24 24 24 24 22 20 23 20 16 14 13 12 13 12 10 10 9 7 7 7 8 9 10 14 17 17 13 10 5 5 12 13 17 18 18 15
10 5 6 11 20 22 24 24 25 25 25 23 22 22 20 18 16 14 13 12 12 12 10 10 9 8 9 12 11 15 17 16 13 11 8 4 10 15 17 16 16 13 11
10 11 6 7 11 19 24 27 26 26 26 24 24 26 22 21 18 16 15 14 14 13 12 10 10 12 13 13 15 16 15 14 11 9 5 8 12 19 17 14 14 12 11
16 13 11 8 8 8 14 23 29 30 29 27 30 29 25 22 20 18 16 17 16 14 13 12 10 14 16 14 19 16 13 10 7 6 7 12 19 19 17 14 13 13 13
21 16 15 15 13 11 12 10 21 31 32 30 33 31 27 25 22 20 19 19 18 16 15 14 15 15 15 18 18 15 11 7 8 11 15 19 18 17 16 12 11 11 12
24 19 16 17 19 15 13 13 12 23 32 33 36 34 30 28 25 23 22 21 20 19 19 17 18 18 15 18 17 15 11 13 19 20 18 18 19 16 13 10 9 10 10
27 25 20 21 20 19 17 15 14 16 27 35 37 37 34 32 30 26 24 23 22 21 21 20 18 20 16 18 16 14 14 18 20 20 18 16 13 9 12 10 9 8 8
30 28 24 19 19 21 20 18 16 16 20 22 31 37 36 34 31 28 25 23 22 21 22 22 19 17 18 18 18 17 17 18 18 16 13 13 7 4 9 10 8 7 7
30 27 26 22 20 19 20 20 18 17 19 22 26 27 26 25 25 24 25 24 21 20 21 20 18 19 21 20 19 17 16 14 13 10 10 8 7 9 10 10 9 8 8
27 27 26 24 22 21 21 21 19 17 20 22 24 23 20 28 22 21 19 22 21 21 20 19 20 22 22 22 20 17 15 13 11 10 10 9 9 10 11 11 10 9 8
21 22 22 21 24 21 21 22 20 20 18 17 18 22 24 27 28 25 18 18 20 20 20 21 23 25 24 22 21 18 15 13 12 12 11 10 10 10 10 9 8 9 10
7 10 13 16 18 20 18 18 19 17 18 20 21 21 26 29 26 25 20 14 17 17 21 25 27 25 24 23 21 18 15 14 12 11 9 9 9 8 8 8 7 9 10
12 12 11 11 10 16 20 17 17 21 21 20 22 24 27 30 30 30 30 26 14 20 24 27 27 25 23 24 23 18 13 12 12 10 9 9 9 9 8 6 8 9 11
17 18 19 18 12 15 19 20 16 20 21 22 23 25 32 33 30 29 30 30 22 21 25 27 27 24 24 25 14 13 3 4 7 9 10 9 9 9 7 8 8 8 8
25 30 35 34 24 19 23 18 15 17 15 19 21 28 33 34 35 35 34 33 33 28 28 27 27 28 28 19 29 6 2 3 6 5 9 9 9 9 9 10 9 8 7
29 32 35 36 34 29 32 26 27 25 17 19 29 28 32 34 36 37 34 33 31 33 23 25 27 27 32 26 25 7 4 7 3 3 5 10 11 10 10 11 11 9 6
30 34 34 35 36 31 36 35 34 30 27 25 28 30 34 36 36 34 33 30 28 25 29 26 28 25 29 31 24 8 6 9 8 4 3 7 13 10 10 12 11 7 5
33 32 35 35 36 33 36 38 36 35 30 29 30 29 33 35 35 33 30 29 28 29 30 29 25 24 24 29 26 16 10 7 7 5 4 5 11 8 13 12 10 6 5
Wind_Direction
210 176 179 177 171 169 166 164 163 153 153 149 144 143 141 137 139 136 139 141 127 125 126 126 120 116 110 111 111 110 109 109 106 97 89 82 85 79 77 80 77 73 74
216 185 186 179 175 175 174 173 168 167 159 157 154 152 147 144 144 142 141 143 136 134 135 130 122 120 119 116 116 117 115 111 112 103 95 93 86 79 74 74 72 64 71
188 188 189 184 183 181 180 181 178 178 170 160 161 155 156 154 149 150 153 162 151 145 136 130 125 126 127 124 124 127 124 120 118 112 107 102 91 83 75 72 67 63 63
192 190 191 187 189 186 186 185 188 179 178 166 172 166 167 165 160 153 152 155 151 137 132 136 132 140 132 128 127 133 137 133 131 125 115 109 88 79 72 68 65 65 64
207 202 197 193 189 189 189 189 189 182 188 181 180 172 172 173 163 155 152 153 150 145 154 164 151 162 157 154 144 152 149 146 140 150 131 111 93 76 74 78 78 73 73
203 207 206 201 196 191 191 192 194 189 193 195 192 182 182 171 158 163 163 174 176 176 165 174 186 183 192 190 177 172 160 153 137 143 134 110 90 88 91 91 89 90 83
211 220 217 210 206 199 195 194 195 198 200 203 197 192 177 170 164 164 182 193 190 192 194 183 197 209 206 192 187 168 163 167 153 146 127 112 85 102 102 102 106 96 89
346 253 229 221 214 209 204 203 199 200 206 202 202 194 178 179 177 180 181 192 198 198 196 193 198 199 186 176 175 158 161 157 153 144 135 118 95 118 116 115 113 104 89
346 304 253 238 227 221 215 213 207 203 206 206 208 195 188 193 186 186 191 189 192 193 189 183 183 176 165 159 150 154 151 152 153 144 135 121 128 138 121 106 94 87 80
303 302 276 264 229 229 229 224 219 213 211 210 210 197 204 196 191 198 197 198 191 183 181 178 170 164 151 146 140 147 153 152 150 143 139 152 141 131 110 96 87 85 80
311 293 276 272 252 242 238 234 227 223 218 212 204 200 209 200 203 203 205 196 190 184 176 177 167 159 152 141 144 147 148 148 149 152 161 146 149 121 109 98 90 85 83
294 287 276 263 266 274 257 248 235 225 222 216 204 204 209 210 205 208 202 192 189 186 181 171 168 162 154 148 151 149 146 145 157 174 158 155 129 113 106 96 90 86 85
282 270 258 269 268 263 270 275 246 232 223 216 210 204 213 207 205 204 198 192 188 187 182 174 169 163 155 152 151 146 141 145 156 145 147 135 119 114 105 99 96 86 83
286 265 259 257 261 261 262 264 266 240 226 221 214 207 208 203 204 203 199 194 191 187 182 183 170 160 151 153 150 143 142 143 141 134 129 126 112 104 99 100 100 97 91
282 275 265 250 248 258 253 259 250 244 237 229 221 211 209 206 203 200 198 194 190 186 184 180 176 163 158 154 153 152 147 147 149 141 132 123 123 97 90 108 108 105 100
275 274 267 256 251 248 248 249 244 237 239 227 215 217 211 209 203 196 195 195 192 188 183 178 177 179 166 163 156 154 153 149 150 142 137 130 142 191 122 113 110 106 102
276 270 265 261 252 246 244 243 234 236 236 236 229 222 195 200 198 198 192 191 190 185 181 177 173 170 162 157 155 155 154 153 156 155 147 138 131 133 127 115 110 105 99
273 270 269 266 247 244 239 238 236 226 229 235 232 231 218 200 201 209 200 191 184 182 180 181 171 160 159 156 153 154 153 149 145 147 144 143 142 142 135 121 113 105 95
272 271 271 267 248 244 239 230 229 218 227 234 235 230 215 201 179 198 188 202 188 192 193 193 175 167 156 150 147 150 151 150 147 141 137 138 134 132 132 136 128 117 101
315 299 286 278 261 247 232 220 215 219 223 230 227 224 218 200 184 184 176 204 200 204 190 184 177 164 158 152 143 146 152 155 152 148 146 145 142 133 135 137 133 118 110
16 13 3 333 294 231 207 197 207 208 214 220 221 213 204 195 187 186 176 180 205 201 189 180 173 165 155 155 133 124 130 151 155 154 150 146 146 139 137 134 128 123 116
327 324 325 324 310 248 229 216 206 202 208 216 211 204 197 186 187 187 176 168 176 201 190 181 178 161 159 158 148 125 117 105 147 157 157 152 151 143 132 128 128 127 123
298 300 302 296 287 263 245 217 215 202 201 197 200 196 192 194 189 186 185 181 178 190 198 188 184 178 166 168 160 148 133 191 138 126 146 149 152 145 136 138 135 129 118
287 291 285 280 269 263 243 210 199 195 187 194 204 203 195 194 191 187 183 183 186 172 197 192 190 187 178 175 181 194 165 143 155 138 125 126 130 130 138 137 135 123 106
286 286 280 275 262 259 229 215 205 198 191 186 187 192 190 189 188 182 185 188 192 189 177 197 197 199 194 191 188 175 179 169 161 140 139 137 108 115 137 136 134 113 82
296 280 275 270 262 253 224 215 211 196 182 170 174 171 182 186 192 193 194 191 189 188 186 180 201 206 206 206 199 197 187 178 178 153 113 130 126 107 130 132 122 103 44